W6DSP Weather Reports


Display with metric or nautical units.
time (UTC)temp
F
wind
direction
speed
MPH
gust
MPH
rain 1hr
in
rain 24hr
in
rain mn
in
humidity
%
barometer
mb
20260505124101 58 227 0.0 6.0 0.00 0.16 0.16 88 1006.2
20260505122909 58 213 0.0 6.0 0.00 0.16 0.16 89 1005.5
20260505121709 57 222 0.0 1.0 0.00 0.16 0.16 89 1005.7
20260505120529 57 24 0.0 4.0 0.00 0.16 0.16 90 1005.8
20260505115336 56 337 0.0 6.0 0.00 0.16 0.16 90 1006.2
20260505114056 56 69 0.0 4.0 0.00 0.16 0.16 91 1006.0
20260505112823 55 232 0.0 4.0 0.00 0.16 0.16 91 1006.0
20260505111648 55 198 0.0 4.0 0.00 0.16 0.16 91 1005.9
20260505110430 55 283 0.0 6.0 0.00 0.16 0.16 91 1005.7
20260505101531 54 156 0.0 0.0 0.00 0.16 0.16 90 1004.9
20260505100347 54 156 0.0 0.0 0.00 0.16 0.16 90 1004.5
20260505095143 55 5 0.0 0.0 0.00 0.16 0.16 90 1004.5
20260505094006 55 57 0.0 2.0 0.00 0.16 0.16 90 1004.3
20260505092817 55 52 0.0 0.0 0.00 0.16 0.16 89 1004.2
20260505091610 55 219 0.0 7.0 0.00 0.16 0.16 89 1004.1
20260505090353 56 124 1.0 4.0 0.00 0.16 0.16 89 1004.0
20260505085127 56 147 0.0 4.0 0.00 0.16 0.16 89 1004.1
20260505083921 56 154 0.0 0.0 0.00 0.16 0.16 89 1003.9
20260505082727 56 143 0.0 8.0 0.00 0.16 0.16 89 1003.9
20260505081521 56 346 1.0 8.0 0.00 0.16 0.16 89 1004.1
20260505080252 56 128 1.0 8.0 0.00 0.16 0.16 89 1003.6
20260505075107 56 302 0.0 8.0 0.00 0.16 0.16 89 1004.1
20260505073906 56 215 1.0 8.0 0.00 0.16 0.16 89 1003.9
20260505072643 56 76 1.0 7.0 0.00 0.16 0.16 89 1003.8
20260505071511 56 135 3.0 9.0 0.00 0.16 0.16 89 1003.8
20260505070311 56 116 3.0 9.0 0.00 0.16 0.16 89 1004.1
20260505065118 56 113 0.0 6.0 0.00 0.16 0.16 89 1003.9
20260505063912 57 83 1.0 9.0 0.00 0.16 0.16 89 1003.9
20260505062713 57 126 3.0 9.0 0.08 0.16 0.16 89 1003.7
20260505061541 57 146 0.0 7.0 0.13 0.13 0.13 89 1004.6
20260505060333 57 227 0.0 4.0 0.15 0.10 0.10 89 1005.5
20260505055108 57 74 0.0 1.0 0.17 0.08 0.08 88 1005.3
20260505053934 58 180 0.0 0.0 0.04 0.04 0.05 87 1005.2
20260505052723 58 217 0.0 6.0 0.10 0.04 0.04 86 1004.8
20260505051548 59 14 0.0 3.0 0.00 0.02 0.02 84 1004.6
20260505050331 59 271 0.0 7.0 0.00 0.01 0.01 81 1004.7
20260505041703 65 339 1.0 8.0 0.00 0.00 0.00 65 1003.7
20260505040528 67 355 1.0 12.0 0.00 0.00 0.00 61 1003.6
20260505035337 67 307 0.0 9.0 0.00 0.00 0.00 62 1003.6
20260505034149 68 290 1.0 9.0 0.00 0.00 0.00 60 1003.1
20260505032914 68 91 1.0 11.0 0.00 0.00 0.00 58 1002.5
20260505031704 68 329 0.0 11.0 0.00 0.00 0.00 58 1002.6
20260505030501 68 115 1.0 11.0 0.00 0.00 0.00 57 1002.7
20260505025232 68 183 1.0 11.0 0.00 0.00 0.00 57 1002.7
20260505023952 68 281 1.0 15.0 0.00 0.00 0.00 57 1002.7
20260505022753 68 225 1.0 15.0 0.00 0.00 0.00 58 1002.6
20260505021512 67 123 1.0 14.0 0.00 0.00 0.00 58 1002.7
20260505020329 68 177 1.0 11.0 0.00 0.00 0.00 58 1002.6
20260505015153 69 280 0.0 4.0 0.00 0.00 0.00 55 1002.5
20260505014022 69 95 0.0 4.0 0.00 0.00 0.00 58 1002.3
20260505012800 68 65 0.0 9.0 0.00 0.00 0.00 60 1002.2
20260505011627 68 141 1.0 14.0 0.00 0.00 0.00 59 1001.9
20260505010457 69 182 3.0 14.0 0.00 0.00 0.00 59 1001.8
20260505005250 68 19 1.0 9.0 0.00 0.00 0.00 64 1001.8
20260505004015 67 132 1.0 8.0 0.00 0.00 0.00 66 1001.9
20260505002756 69 110 1.0 12.0 0.00 0.00 0.00 63 1002.0
20260505001540 70 105 1.0 12.0 0.00 0.00 0.00 62 1001.9
20260505000315 70 117 3.0 9.0 0.00 0.00 0.00 61 1001.8
20260504235122 70 171 3.0 14.0 0.00 0.00 0.00 62 1001.8
20260504233918 70 119 3.0 14.0 0.00 0.00 0.00 61 1001.9
20260504232737 72 85 3.0 12.0 0.00 0.00 0.00 60 1002.1
20260504231552 72 252 3.0 12.0 0.00 0.00 0.00 57 1002.2
20260504230407 72 248 3.0 15.0 0.00 0.00 0.00 59 1002.4
20260504225148 72 244 4.0 15.0 0.00 0.00 0.00 55 1002.6
20260504223912 73 215 3.0 14.0 0.00 0.00 0.00 53 1002.7
20260504222721 73 311 3.0 18.0 0.00 0.00 0.00 52 1002.8
20260504221441 73 355 5.0 18.0 0.00 0.00 0.00 51 1002.9
20260504220248 73 69 3.0 16.0 0.00 0.00 0.00 49 1003.0
20260504215019 75 83 3.0 12.0 0.00 0.00 0.00 48 1002.9
20260504213806 76 254 4.0 18.0 0.00 0.00 0.00 48 1003.0
20260504212545 77 248 4.0 18.0 0.00 0.01 0.00 44 1002.7
20260504211407 78 221 3.0 14.0 0.00 0.01 0.00 44 1002.8
20260504210232 77 307 4.0 16.0 0.00 0.01 0.00 44 1002.6
20260504205020 78 248 4.0 15.0 0.00 0.01 0.00 45 1002.9
20260504203756 77 355 3.0 16.0 0.00 0.02 0.00 46 1002.9
20260504202517 78 313 5.0 20.0 0.00 0.02 0.00 47 1002.9
20260504201311 78 344 4.0 15.0 0.00 0.02 0.00 50 1003.1
20260504200111 78 156 3.0 15.0 0.00 0.02 0.00 47 1003.0
20260504194928 78 16 5.0 18.0 0.00 0.02 0.00 44 1003.1
20260504193653 78 336 4.0 18.0 0.00 0.02 0.00 48 1003.2
20260504192414 78 246 4.0 18.0 0.00 0.02 0.00 46 1003.5
20260504191219 77 294 4.0 18.0 0.00 0.02 0.00 50 1003.6
20260504190008 78 343 5.0 26.0 0.00 0.02 0.00 48 1003.7
20260504184749 78 162 4.0 26.0 0.00 0.02 0.00 45 1003.7
20260504183608 78 229 3.0 14.0 0.00 0.02 0.00 49 1003.6
20260504182344 77 211 4.0 15.0 0.00 0.02 0.00 51 1004.0
20260504181156 77 142 3.0 11.0 0.00 0.02 0.00 54 1004.0
20260504180004 76 269 4.0 15.0 0.00 0.02 0.00 51 1004.1
20260504174740 75 51 4.0 15.0 0.00 0.02 0.00 51 1003.9
20260504173519 76 263 3.0 11.0 0.00 0.02 0.00 51 1004.0
20260504172247 75 83 4.0 12.0 0.00 0.02 0.00 55 1004.3
20260504171113 75 221 4.0 18.0 0.00 0.02 0.00 58 1004.5
20260504151052 67 112 1.0 8.0 0.00 0.02 0.00 61 1006.3
20260504141135 63 112 1.0 8.0 0.00 0.02 0.00 64 1006.8